Buckhead, Georgia, United States (30625)
Lat: 33.57N, Lon: 83.36W
Wx Zone: GAZ049
Local Info
Past Weather Observations for Today

NOTE: This archive is for the closest National Weather Service station to Buckhead. Information may differ from the station used for current weather conditions.

Click here for Long-term Archive

Time Weather Temperature Dewpoint Humidity Pressure Winds Precip Visibility
22:35
Overcast
54°F / 12°C 45°F / 7°C 72% 29.83 in
(1010 mb)
W 10.4 mph
(W 17 kph)
- 10SM
22:15
Overcast
54°F / 12°C 45°F / 7°C 72% 29.83 in
(1010 mb)
W 6.9 mph
(W 11 kph)
- 10SM
21:55
Partly Cloudy
54°F / 12°C 45°F / 7°C 72% 29.83 in
(1010 mb)
W 9.2 mph
(W 15 kph)
- 10SM
21:35
Clear
54°F / 12°C 45°F / 7°C 72% 29.83 in
(1010 mb)
W 9.2 mph
(W 15 kph)
- 10SM
21:15
Clear
55°F / 13°C 45°F / 7°C 67% 29.83 in
(1010 mb)
W 8.1 mph
(W 13 kph)
- 10SM
20:55
Clear
55°F / 13°C 45°F / 7°C 67% 29.83 in
(1010 mb)
W 8.1 mph
(W 13 kph)
- 10SM
20:35
Clear
55°F / 13°C 45°F / 7°C 67% 29.83 in
(1010 mb)
W 6.9 mph
(W 11 kph)
- 10SM
20:15
Partly Cloudy
57°F / 14°C 45°F / 7°C 63% 29.83 in
(1010 mb)
W 8.1 mph
(W 13 kph)
- 10SM
19:55
Mostly Cloudy
59°F / 15°C 45°F / 7°C 59% 29.83 in
(1010 mb)
W 4.6 mph
(W 7 kph)
- 10SM
19:35
Mostly Cloudy
59°F / 15°C 45°F / 7°C 59% 29.83 in
(1010 mb)
W 4.6 mph
(W 7 kph)
- 10SM
19:15
Mostly Cloudy
59°F / 15°C 45°F / 7°C 59% 29.83 in
(1010 mb)
W 6.9 mph
(W 11 kph)
- 10SM
18:35
Overcast
61°F / 16°C 45°F / 7°C 55% 29.83 in
(1010 mb)
W 6.9 mph
(W 11 kph)
- 10SM
18:15
Overcast
61°F / 16°C 45°F / 7°C 55% 29.83 in
(1010 mb)
W 9.2 mph
(W 15 kph)
- 10SM
17:55
Overcast
61°F / 16°C 45°F / 7°C 55% 29.83 in
(1010 mb)
WNW 10.4 mph
(WNW 17 kph)
- 10SM
17:35
Overcast
63°F / 17°C 45°F / 7°C 52% 29.83 in
(1010 mb)
W 8.1 mph
(W 13 kph)
- 10SM
17:15
Overcast
63°F / 17°C 45°F / 7°C 52% 29.83 in
(1010 mb)
W 8.1 mph
(W 13 kph)
- 10SM
16:55
Overcast
63°F / 17°C 46°F / 8°C 56% 29.8 in
(1009 mb)
W 5.8 mph
(W 9 kph)
- 10SM
16:35
Overcast
64°F / 18°C 45°F / 7°C 49% 29.8 in
(1009 mb)
SSW 5.8 mph
(SSW 9 kph)
- 10SM
16:15
Overcast
64°F / 18°C 43°F / 6°C 46% 29.8 in
(1009 mb)
NW 3.5 mph
(NW 6 kph)
- 10SM
15:55
Overcast
66°F / 19°C 43°F / 6°C 43% 29.8 in
(1009 mb)
W 6.9 mph
(W 11 kph)
- 10SM
15:35
Overcast
68°F / 20°C 43°F / 6°C 40% 29.8 in
(1009 mb)
W 5.8 mph
(W 9 kph)
- 10SM
15:15
Overcast
68°F / 20°C 45°F / 7°C 43% 29.8 in
(1009 mb)
NW 3.5 mph
(NW 6 kph)
- 10SM
14:55
Overcast
68°F / 20°C 45°F / 7°C 43% 29.8 in
(1009 mb)
WNW 5.8 mph
(WNW 9 kph)
- 10SM
14:35
Mostly Cloudy
68°F / 20°C 45°F / 7°C 43% 29.8 in
(1009 mb)
NW 6.9 mph
(NW 11 kph)
- 10SM
14:15
Partly Cloudy
68°F / 20°C 43°F / 6°C 40% 29.8 in
(1009 mb)
W 5.8 mph
(W 9 kph)
- 10SM
13:55
Partly Cloudy
70°F / 21°C 43°F / 6°C 38% 29.8 in
(1009 mb)
SSW 4.6 mph
(SSW 7 kph)
- 10SM
13:35
Clear
70°F / 21°C 43°F / 6°C 38% 29.8 in
(1009 mb)
SW 3.5 mph
(SW 6 kph)
- 10SM
13:15
Clear
70°F / 21°C 45°F / 7°C 40% 29.83 in
(1010 mb)
SSW 3.5 mph
(SSW 6 kph)
- 10SM
12:55
Clear
68°F / 20°C 45°F / 7°C 43% 29.83 in
(1010 mb)
Calm - 10SM
12:35
Clear
68°F / 20°C 45°F / 7°C 43% 29.83 in
(1010 mb)
Calm - 10SM
12:15
Clear
68°F / 20°C 46°F / 8°C 46% 29.86 in
(1011 mb)
SSW 4.6 mph
(SSW 7 kph)
- 10SM
11:55
Clear
68°F / 20°C 48°F / 9°C 49% 29.86 in
(1011 mb)
NW 3.5 mph
(NW 6 kph)
- 10SM
11:35
Clear
64°F / 18°C 48°F / 9°C 56% 29.89 in
(1012 mb)
Calm - 10SM
11:15
Clear
63°F / 17°C 48°F / 9°C 59% 29.89 in
(1012 mb)
Calm - 10SM
10:55
Clear
63°F / 17°C 48°F / 9°C 59% 29.89 in
(1012 mb)
Calm - 10SM
10:35
Clear
59°F / 15°C 48°F / 9°C 68% 29.89 in
(1012 mb)
Calm - 10SM
10:15
Clear
59°F / 15°C 46°F / 8°C 63% 29.92 in
(1013 mb)
Calm - 10SM
09:55
Clear
55°F / 13°C 46°F / 8°C 72% 29.92 in
(1013 mb)
Calm - 10SM
09:35
Clear
54°F / 12°C 46°F / 8°C 77% 29.92 in
(1013 mb)
Calm - 10SM
09:15
Clear
52°F / 11°C 46°F / 8°C 82% 29.92 in
(1013 mb)
Calm - 10SM
08:55
Clear
50°F / 10°C 46°F / 8°C 88% 29.92 in
(1013 mb)
Calm - 10SM
08:35
Clear
46°F / 8°C 45°F / 7°C 93% 29.92 in
(1013 mb)
Calm - 10SM
08:15
Clear
46°F / 8°C 45°F / 7°C 93% 29.92 in
(1013 mb)
Calm - 10SM
07:55
Clear
45°F / 7°C 45°F / 7°C 100% 29.92 in
(1013 mb)
Calm - 10SM
07:35
Clear
43°F / 6°C 43°F / 6°C 100% 29.92 in
(1013 mb)
Calm - 10SM
07:15
Clear
43°F / 6°C 43°F / 6°C 100% 29.92 in
(1013 mb)
Calm - 10SM
06:55
Clear
43°F / 6°C 43°F / 6°C 100% 29.89 in
(1012 mb)
Calm - 10SM
06:35
Clear
43°F / 6°C 43°F / 6°C 100% 29.89 in
(1012 mb)
Calm - 10SM
06:15
Clear
43°F / 6°C 43°F / 6°C 100% 29.89 in
(1012 mb)
Calm - 10SM
05:55
Clear
45°F / 7°C 43°F / 6°C 93% 29.89 in
(1012 mb)
Calm - 10SM
05:35
Clear
45°F / 7°C 43°F / 6°C 93% 29.89 in
(1012 mb)
Calm - 10SM
05:15
Clear
45°F / 7°C 43°F / 6°C 93% 29.89 in
(1012 mb)
Calm - 10SM
04:55
Partly Cloudy
45°F / 7°C 43°F / 6°C 93% 29.89 in
(1012 mb)
NW 3.5 mph
(NW 6 kph)
- 10SM
04:35
Partly Cloudy
45°F / 7°C 45°F / 7°C 100% 29.89 in
(1012 mb)
Calm - 10SM
04:15
Clear
45°F / 7°C 43°F / 6°C 93% 29.89 in
(1012 mb)
Calm - 10SM
03:55
Clear
45°F / 7°C 43°F / 6°C 93% 29.89 in
(1012 mb)
Calm - 10SM
03:35
Clear
46°F / 8°C 43°F / 6°C 87% 29.89 in
(1012 mb)
Calm - 10SM
03:15
Clear
46°F / 8°C 45°F / 7°C 93% 29.89 in
(1012 mb)
Calm - 10SM
02:55
Clear
48°F / 9°C 45°F / 7°C 87% 29.89 in
(1012 mb)
Calm - 10SM
02:35
Clear
48°F / 9°C 45°F / 7°C 87% 29.92 in
(1013 mb)
Calm - 10SM
02:15
Clear
46°F / 8°C 45°F / 7°C 93% 29.92 in
(1013 mb)
Calm - 10SM
01:55
Clear
48°F / 9°C 45°F / 7°C 87% 29.92 in
(1013 mb)
Calm - 10SM
01:35
Clear
50°F / 10°C 45°F / 7°C 82% 29.92 in
(1013 mb)
Calm - 10SM
01:15
Clear
52°F / 11°C 45°F / 7°C 77% 29.95 in
(1014 mb)
Calm - 10SM
00:55
Clear
52°F / 11°C 45°F / 7°C 77% 29.95 in
(1014 mb)
NW 3.5 mph
(NW 6 kph)
- 10SM
00:35
Clear
50°F / 10°C 45°F / 7°C 82% 29.95 in
(1014 mb)
Calm - 10SM
00:15
Clear
50°F / 10°C 45°F / 7°C 82% 29.95 in
(1014 mb)
Calm - 10SM
Time Weather Temperature Dewpoint Humidity Pressure Winds Precip Visibility


Weather for websites

WeatherForYou.com, LLC is not responsible for any damages or problems caused by this service. Current weather conditions are obtained from the closest station including government and personal stations which may have varying degrees of accuracy. Weather forecasts are derived from the NOAA NDFD. Like all things, this site belongs to Jesus Christ... He just trusts me to maintain it. If you have any questions or comments email webmaster@weatherforyou.com

Copyright © 2014, WeatherForYou.com LLC. All rights reserved.